Meteo pe oră la Dziekanowice

Astăzi, 1 Decembrie, Marţi

Timp Temperatura Precipitaţii Vânt Presiune Umiditate
00:00 -1°C° 0 mm 1 m/s 744 mmHg 78%
01:00 -2°C° 0 mm 1 m/s 743 mmHg 84%
02:00 -2°C° 0 mm 1 m/s 743 mmHg 84%
03:00 -3°C° 0 mm 1 m/s 743 mmHg 83%
04:00 -3°C° 0 mm 1 m/s 742 mmHg 82%
05:00 -3°C° 0 mm 1 m/s 742 mmHg 82%
06:00 -3°C° 0 mm 1 m/s 742 mmHg 82%
07:00 -3°C° 0 mm 1 m/s 742 mmHg 82%
08:00 -2°C° 0 mm 1 m/s 742 mmHg 78%
09:00 -1°C° 0 mm 1 m/s 743 mmHg 74%
10:00 0°C° 0 mm 1 m/s 743 mmHg 70%
11:00 +1°C° 0 mm 1 m/s 742 mmHg 68%
12:00 +1°C° 0 mm 1 m/s 742 mmHg 67%
13:00 +2°C° 0 mm 1 m/s 742 mmHg 66%
14:00 +1°C° 0 mm 1 m/s 742 mmHg 72%
15:00 0°C° 0 mm 1 m/s 742 mmHg 77%
16:00 -1°C° 0 mm 1 m/s 742 mmHg 83%
17:00 -2°C° 0 mm 1 m/s 742 mmHg 84%
18:00 -2°C° 0 mm 1 m/s 742 mmHg 85%
19:00 -2°C° 0 mm 1 m/s 743 mmHg 85%
20:00 -2°C° 0 mm 1 m/s 743 mmHg 86%
21:00 -4°C° 0 mm 0 m/s 743 mmHg 86%
22:00 -4°C° 0 mm 0 m/s 743 mmHg 86%
23:00 -4°C° 0 mm 0 m/s 743 mmHg 86%

Mâine, 2 Decembrie, Miercuri

Timp Temperatura Precipitaţii Vânt Presiune Umiditate
00:00 -4°C° 0 mm 0 m/s 743 mmHg 87%
01:00 -4°C° 0 mm 0 m/s 743 mmHg 87%
02:00 -4°C° 0 mm 0 m/s 743 mmHg 87%
03:00 -4°C° 0 mm 0 m/s 743 mmHg 88%
04:00 -4°C° 0 mm 1 m/s 743 mmHg 88%
05:00 -4°C° 0 mm 1 m/s 743 mmHg 89%
06:00 -4°C° 0 mm 1 m/s 743 mmHg 89%
07:00 -4°C° 0 mm 1 m/s 743 mmHg 90%
08:00 -3°C° 0 mm 1 m/s 743 mmHg 86%
09:00 -2°C° 0 mm 1 m/s 743 mmHg 82%
10:00 -3°C° 0 mm 2 m/s 743 mmHg 78%
11:00 -3°C° 0 mm 2 m/s 742 mmHg 76%
12:00 -2°C° 0 mm 2 m/s 742 mmHg 73%
13:00 -2°C° 0 mm 2 m/s 741 mmHg 71%
14:00 -3°C° 0 mm 2 m/s 741 mmHg 76%
15:00 -3°C° 0 mm 2 m/s 741 mmHg 80%
16:00 -4°C° 0 mm 2 m/s 740 mmHg 85%
17:00 -5°C° 0 mm 2 m/s 740 mmHg 85%
18:00 -5°C° 0 mm 2 m/s 740 mmHg 85%
19:00 -5°C° 0 mm 2 m/s 740 mmHg 86%
20:00 -5°C° 0 mm 2 m/s 739 mmHg 85%
21:00 -5°C° 0 mm 2 m/s 739 mmHg 84%
22:00 -5°C° 0 mm 2 m/s 739 mmHg 82%
23:00 -5°C° 0 mm 2 m/s 739 mmHg 82%

Poimâine, 3 Decembrie, Joi

Timp Temperatura Precipitaţii Vânt Presiune Umiditate
00:00 -3°C° 0 mm 1 m/s 738 mmHg 81%
01:00 -3°C° 0 mm 1 m/s 738 mmHg 80%
02:00 -3°C° 0 mm 1 m/s 738 mmHg 78%
03:00 -3°C° 0 mm 1 m/s 737 mmHg 76%
04:00 -3°C° 0 mm 1 m/s 737 mmHg 75%
05:00 -2°C° 0 mm 1 m/s 737 mmHg 74%
06:00 -2°C° 0 mm 1 m/s 736 mmHg 73%
07:00 -2°C° 0 mm 1 m/s 736 mmHg 72%
08:00 -3°C° 0 mm 2 m/s 736 mmHg 70%
09:00 -3°C° 0 mm 2 m/s 736 mmHg 68%
10:00 -2°C° 0 mm 2 m/s 735 mmHg 66%
11:00 +1°C° 0 mm 1 m/s 735 mmHg 65%
12:00 +2°C° 0 mm 1 m/s 735 mmHg 65%
13:00 +2°C° 0 mm 1 m/s 734 mmHg 64%
14:00 +2°C° 0 mm 1 m/s 734 mmHg 66%
15:00 +2°C° 0 mm 1 m/s 733 mmHg 69%
16:00 +1°C° 0 mm 1 m/s 733 mmHg 71%
17:00 +1°C° 0 mm 1 m/s 733 mmHg 72%
18:00 +2°C° 0 mm 1 m/s 733 mmHg 73%
19:00 +2°C° 0 mm 1 m/s 732 mmHg 74%
20:00 +2°C° 0 mm 1 m/s 732 mmHg 75%
21:00 +2°C° 0 mm 1 m/s 732 mmHg 76%
22:00 +2°C° 0 mm 1 m/s 732 mmHg 77%
23:00 +1°C° 0 mm 2 m/s 731 mmHg 78%

4 Decembrie, Vineri

Timp Temperatura Precipitaţii Vânt Presiune Umiditate
00:00 +1°C° 0 mm 2 m/s 731 mmHg 80%
01:00 0°C° 0 mm 3 m/s 731 mmHg 81%
02:00 0°C° 0 mm 3 m/s 730 mmHg 82%
03:00 0°C° 0 mm 3 m/s 730 mmHg 82%
04:00 0°C° 0 mm 3 m/s 729 mmHg 83%
05:00 +1°C° 0 mm 3 m/s 729 mmHg 82%
06:00 +1°C° 0 mm 3 m/s 729 mmHg 81%
07:00 +1°C° 0 mm 3 m/s 729 mmHg 80%
08:00 0°C° 0 mm 4 m/s 729 mmHg 77%
09:00 +1°C° 0 mm 4 m/s 729 mmHg 74%
10:00 +3°C° 0 mm 4 m/s 729 mmHg 71%
11:00 +4°C° 0 mm 4 m/s 729 mmHg 72%
12:00 +5°C° 0 mm 5 m/s 728 mmHg 72%
13:00 +5°C° 0 mm 5 m/s 728 mmHg 73%
14:00 +5°C° 0 mm 5 m/s 728 mmHg 77%
15:00 +4°C° 0 mm 4 m/s 728 mmHg 81%
16:00 +3°C° 0 mm 4 m/s 728 mmHg 85%
17:00 +1°C° 0 mm 4 m/s 728 mmHg 85%
18:00 +1°C° 0 mm 4 m/s 729 mmHg 84%
19:00 +1°C° 0 mm 4 m/s 729 mmHg 84%
20:00 +1°C° 0 mm 4 m/s 729 mmHg 83%
21:00 +2°C° 0 mm 3 m/s 729 mmHg 83%
22:00 +2°C° 0 mm 3 m/s 729 mmHg 82%
23:00 +2°C° 0 mm 3 m/s 729 mmHg 82%

5 Decembrie, Sâmbătă

Timp Temperatura Precipitaţii Vânt Presiune Umiditate
00:00 +3°C° 0 mm 3 m/s 730 mmHg 82%
01:00 +3°C° 0 mm 3 m/s 730 mmHg 82%
02:00 +3°C° 0 mm 3 m/s 730 mmHg 83%
03:00 +3°C° 0 mm 3 m/s 730 mmHg 84%
04:00 +3°C° 0 mm 3 m/s 730 mmHg 84%
05:00 +3°C° 0 mm 3 m/s 730 mmHg 85%
06:00 +3°C° 0 mm 3 m/s 730 mmHg 85%
07:00 +3°C° 0 mm 3 m/s 731 mmHg 85%
08:00 +4°C° 0 mm 3 m/s 731 mmHg 84%
09:00 +4°C° 0 mm 4 m/s 731 mmHg 83%
10:00 +5°C° 0 mm 4 m/s 731 mmHg 82%
11:00 +5°C° 0 mm 4 m/s 731 mmHg 81%
12:00 +6°C° 0 mm 4 m/s 731 mmHg 80%
13:00 +7°C° 0 mm 3 m/s 731 mmHg 79%
14:00 +6°C° 0 mm 4 m/s 731 mmHg 80%
15:00 +6°C° 0 mm 4 m/s 731 mmHg 81%
16:00 +6°C° 0 mm 4 m/s 731 mmHg 82%
17:00 +5°C° 0 mm 5 m/s 731 mmHg 82%
18:00 +5°C° 0 mm 5 m/s 731 mmHg 83%
19:00 +5°C° 0 mm 5 m/s 731 mmHg 84%
20:00 +5°C° 0 mm 5 m/s 731 mmHg 83%
21:00 +5°C° 0 mm 5 m/s 731 mmHg 83%
22:00 +5°C° 0 mm 5 m/s 731 mmHg 83%
23:00 +5°C° 0 mm 5 m/s 731 mmHg 83%

6 Decembrie, Duminică

Timp Temperatura Precipitaţii Vânt Presiune Umiditate
00:00 +5°C° 0 mm 5 m/s 731 mmHg 83%
01:00 +5°C° 0 mm 5 m/s 731 mmHg 83%
02:00 +5°C° 0 mm 5 m/s 731 mmHg 83%
03:00 +5°C° 0 mm 5 m/s 730 mmHg 83%
04:00 +5°C° 0 mm 5 m/s 730 mmHg 83%
05:00 +5°C° 0 mm 5 m/s 730 mmHg 83%
06:00 +5°C° 0 mm 5 m/s 730 mmHg 83%
07:00 +5°C° 0 mm 5 m/s 729 mmHg 83%
08:00 +6°C° 0 mm 5 m/s 729 mmHg 80%
09:00 +7°C° 0 mm 6 m/s 729 mmHg 78%
10:00 +7°C° 0 mm 6 m/s 729 mmHg 76%
11:00 +8°C° 0 mm 6 m/s 729 mmHg 73%
12:00 +8°C° 0 mm 6 m/s 729 mmHg 70%
13:00 +9°C° 0 mm 7 m/s 728 mmHg 68%
14:00 +9°C° 0 mm 7 m/s 728 mmHg 70%
15:00 +8°C° 0 mm 7 m/s 728 mmHg 73%
16:00 +8°C° 0 mm 7 m/s 728 mmHg 76%
17:00 +7°C° 0 mm 6 m/s 729 mmHg 78%
18:00 +7°C° 0 mm 6 m/s 729 mmHg 81%
19:00 +7°C° 0 mm 5 m/s 729 mmHg 83%
20:00 +6°C° 0 mm 4 m/s 730 mmHg 84%
21:00 +7°C° 0 mm 3 m/s 730 mmHg 86%
22:00 +7°C° 0 mm 3 m/s 731 mmHg 87%
23:00 +5°C° 0 mm 3 m/s 731 mmHg 87%
Arată mai mult

Formular de consimțământ

Meteoprog și furnizorii noștri de servicii pot stoca și accesa date personale, precum cookies, identificatori de dispozitiv sau alte tehnologii similare pe dispozitivul dumneavoastră și procesa astfel de date pentru a personaliza conținutul și reclamele, dar și pentru a oferi caracteristici de social media și pentru a analiza traficul.

  • Stocarea și/sau accesarea informațiilor pe dispozitivul dumneavoastră

    Cookies, identificatori de dispozitiv sau alte informații pot fi stocate sau accesate pe dispozitiv în scopurile indicate mai sus.

  • Reclame și conținut personalizat, evaluarea reclamelor și a conținutului, informații despre audiențe și dezvoltarea produselor

    Reclamele și conținutul pot fi personalizate pe baza unui profil. Pot fi adăugate date suplimentare pentru a personaliza mai bine reclamele și conținutul. Performanța reclamelor și conținutului poate fi măsurată. Pot fi obținute informații despre utilizatorii care au văzut reclamele și conținutul. Aceste date pot fi utilizate pentru a dezvolta sau îmbunătăți experiența utilizatorilor, sistemele și software-ul.

Dând clic pe ‘Sunt de acord’, permiteți utilizarea cookie-urilor menționate, a identificatorilor de dispozitiv, balizelor web sau altor tehnologii similare. Setările pot fi modificate din browser-ul dispozitivului dumneavoastră.

În anumite scopuri, interesele legitime pot prima asupra consimțământului. Puteți citi mai multe informații în acest sens în Politica privind Confidențialitatea Datelor și Cookie.